| time (UTC) | temp F | wind direction | speed MPH | gust MPH | rain 1hr in | rain 24hr in | rain mn in | humidity % | barometer mb |
| 20260506210039 | 47 | 0 | 0.0 | 0.0 | 0.00 | 0.00 | 0.00 | 72 | 1013.6 |
| 20260506205530 | 48 | 0 | 0.0 | 0.0 | 0.00 | 0.00 | 0.00 | 71 | 1013.6 |
| 20260506205031 | 48 | 0 | 0.0 | 1.0 | 0.00 | 0.00 | 0.00 | 70 | 1013.6 |
| 20260506204538 | 48 | 0 | 0.0 | 2.0 | 0.00 | 0.00 | 0.00 | 70 | 1013.7 |
| 20260506204030 | 48 | 0 | 0.0 | 2.0 | 0.00 | 0.00 | 0.00 | 69 | 1013.6 |
| 20260506203530 | 48 | 0 | 0.0 | 2.0 | 0.00 | 0.00 | 0.00 | 69 | 1013.5 |
| 20260506203044 | 48 | 0 | 0.0 | 1.0 | 0.00 | 0.00 | 0.00 | 68 | 1013.6 |
| 20260506202534 | 49 | 0 | 0.0 | 0.0 | 0.00 | 0.00 | 0.00 | 68 | 1013.6 |
| 20260506202031 | 49 | 0 | 0.0 | 0.0 | 0.00 | 0.00 | 0.00 | 68 | 1013.5 |
| 20260506201544 | 49 | 0 | 0.0 | 0.0 | 0.00 | 0.00 | 0.00 | 68 | 1013.5 |
| 20260506201033 | 49 | 0 | 0.0 | 0.0 | 0.00 | 0.00 | 0.00 | 68 | 1013.6 |
| 20260506200530 | 49 | 0 | 0.0 | 0.0 | 0.00 | 0.00 | 0.00 | 67 | 1013.6 |
| 20260506200035 | 49 | 0 | 0.0 | 0.0 | 0.00 | 0.00 | 0.00 | 66 | 1013.6 |
| 20260506195530 | 50 | 0 | 0.0 | 1.0 | 0.00 | 0.00 | 0.00 | 66 | 1013.5 |
| 20260506195030 | 50 | 0 | 0.0 | 1.0 | 0.00 | 0.00 | 0.00 | 65 | 1013.5 |
| 20260506194536 | 50 | 0 | 0.0 | 1.0 | 0.00 | 0.00 | 0.00 | 64 | 1013.6 |
| 20260506194033 | 50 | 240 | 0.0 | 1.0 | 0.00 | 0.00 | 0.00 | 64 | 1013.6 |
| 20260506193533 | 50 | 0 | 0.0 | 1.0 | 0.00 | 0.00 | 0.00 | 64 | 1013.5 |
| 20260506193037 | 50 | 0 | 0.0 | 2.0 | 0.00 | 0.00 | 0.00 | 63 | 1013.4 |
| 20260506192530 | 50 | 0 | 0.0 | 2.0 | 0.00 | 0.00 | 0.00 | 63 | 1013.5 |
| 20260506192030 | 50 | 0 | 0.0 | 2.0 | 0.00 | 0.00 | 0.00 | 63 | 1013.5 |
| 20260506191539 | 50 | 0 | 0.0 | 2.0 | 0.00 | 0.00 | 0.00 | 63 | 1013.5 |
| 20260506191031 | 51 | 279 | 0.0 | 2.0 | 0.00 | 0.00 | 0.00 | 62 | 1013.5 |
| 20260506190534 | 51 | 0 | 0.0 | 3.0 | 0.00 | 0.00 | 0.00 | 61 | 1013.5 |
| 20260506190043 | 51 | 334 | 1.0 | 3.0 | 0.00 | 0.00 | 0.00 | 60 | 1013.5 |
| 20260506185532 | 51 | 279 | 1.0 | 3.0 | 0.00 | 0.00 | 0.00 | 60 | 1013.5 |
| 20260506185031 | 51 | 269 | 0.0 | 4.0 | 0.00 | 0.00 | 0.00 | 60 | 1013.4 |
| 20260506184549 | 51 | 262 | 2.0 | 4.0 | 0.00 | 0.00 | 0.00 | 59 | 1013.5 |
| 20260506184032 | 52 | 288 | 2.0 | 4.0 | 0.00 | 0.00 | 0.00 | 58 | 1013.5 |
| 20260506183532 | 52 | 288 | 1.0 | 3.0 | 0.00 | 0.00 | 0.00 | 58 | 1013.5 |
| 20260506183050 | 52 | 297 | 0.0 | 3.0 | 0.00 | 0.00 | 0.00 | 59 | 1013.4 |
| 20260506182531 | 52 | 258 | 1.0 | 4.0 | 0.00 | 0.00 | 0.00 | 58 | 1013.3 |
| 20260506182031 | 52 | 13 | 1.0 | 4.0 | 0.00 | 0.00 | 0.00 | 58 | 1013.2 |
| 20260506181600 | 52 | 293 | 2.0 | 5.0 | 0.00 | 0.00 | 0.00 | 57 | 1013.3 |
| 20260506181032 | 53 | 206 | 1.0 | 5.0 | 0.00 | 0.00 | 0.00 | 57 | 1013.3 |
| 20260506180532 | 53 | 291 | 2.0 | 5.0 | 0.00 | 0.00 | 0.00 | 56 | 1013.3 |
| 20260506180044 | 53 | 304 | 1.0 | 4.0 | 0.00 | 0.00 | 0.00 | 56 | 1013.2 |
| 20260506175532 | 53 | 0 | 1.0 | 3.0 | 0.00 | 0.00 | 0.00 | 56 | 1013.2 |
| 20260506175037 | 53 | 254 | 1.0 | 2.0 | 0.00 | 0.00 | 0.00 | 54 | 1013.1 |
| 20260506174543 | 53 | 0 | 0.0 | 2.0 | 0.00 | 0.00 | 0.00 | 56 | 1013.3 |
| 20260506174032 | 53 | 0 | 0.0 | 1.0 | 0.00 | 0.00 | 0.00 | 55 | 1013.2 |
| 20260506173532 | 53 | 224 | 0.0 | 1.0 | 0.00 | 0.00 | 0.00 | 55 | 1013.3 |
| 20260506173054 | 53 | 0 | 0.0 | 0.0 | 0.00 | 0.00 | 0.00 | 55 | 1013.2 |
| 20260506172532 | 53 | 0 | 0.0 | 0.0 | 0.00 | 0.00 | 0.00 | 54 | 1013.3 |
| 20260506172031 | 53 | 0 | 0.0 | 0.0 | 0.00 | 0.00 | 0.00 | 54 | 1013.3 |
| 20260506171536 | 53 | 0 | 0.0 | 1.0 | 0.00 | 0.00 | 0.00 | 52 | 1013.3 |
| 20260506171032 | 53 | 0 | 0.0 | 1.0 | 0.00 | 0.00 | 0.00 | 52 | 1013.4 |
| 20260506170533 | 53 | 0 | 0.0 | 1.0 | 0.00 | 0.00 | 0.00 | 50 | 1013.4 |
| 20260506170040 | 54 | 0 | 0.0 | 1.0 | 0.00 | 0.00 | 0.00 | 49 | 1013.4 |
| 20260506165533 | 54 | 0 | 0.0 | 2.0 | 0.00 | 0.00 | 0.00 | 49 | 1013.4 |
| 20260506165035 | 54 | 84 | 0.0 | 2.0 | 0.00 | 0.00 | 0.00 | 50 | 1013.5 |
| 20260506164538 | 54 | 126 | 0.0 | 1.0 | 0.00 | 0.00 | 0.00 | 50 | 1013.5 |
| 20260506164031 | 54 | 105 | 0.0 | 1.0 | 0.00 | 0.00 | 0.00 | 52 | 1013.5 |
| 20260506163531 | 54 | 0 | 0.0 | 1.0 | 0.00 | 0.00 | 0.00 | 51 | 1013.4 |
| 20260506163043 | 54 | 0 | 0.0 | 1.0 | 0.00 | 0.00 | 0.00 | 50 | 1013.5 |
| 20260506162531 | 54 | 0 | 0.0 | 1.0 | 0.00 | 0.00 | 0.00 | 49 | 1013.4 |
| 20260506162033 | 54 | 0 | 0.0 | 1.0 | 0.00 | 0.00 | 0.00 | 48 | 1013.5 |
| 20260506161546 | 54 | 0 | 0.0 | 1.0 | 0.00 | 0.00 | 0.00 | 49 | 1013.4 |
| 20260506161031 | 54 | 0 | 0.0 | 2.0 | 0.00 | 0.00 | 0.00 | 49 | 1013.6 |
| 20260506160532 | 54 | 0 | 0.0 | 2.0 | 0.00 | 0.00 | 0.00 | 48 | 1013.6 |
| 20260506160044 | 55 | 269 | 0.0 | 2.0 | 0.00 | 0.00 | 0.00 | 47 | 1013.6 |
| 20260506155534 | 55 | 0 | 0.0 | 2.0 | 0.00 | 0.00 | 0.00 | 47 | 1013.7 |
| 20260506155032 | 55 | 269 | 0.0 | 2.0 | 0.00 | 0.00 | 0.00 | 50 | 1013.7 |
| 20260506154547 | 55 | 143 | 0.0 | 2.0 | 0.00 | 0.00 | 0.00 | 48 | 1013.8 |
| 20260506154032 | 55 | 139 | 0.0 | 2.0 | 0.00 | 0.00 | 0.00 | 49 | 1013.9 |
| 20260506153531 | 55 | 74 | 0.0 | 1.0 | 0.00 | 0.00 | 0.00 | 46 | 1014.0 |
| 20260506153105 | 55 | 32 | 0.0 | 1.0 | 0.00 | 0.00 | 0.00 | 47 | 1014.0 |
| 20260506152531 | 55 | 0 | 0.0 | 1.0 | 0.00 | 0.00 | 0.00 | 45 | 1014.0 |
| 20260506152031 | 55 | 44 | 0.0 | 1.0 | 0.00 | 0.00 | 0.00 | 46 | 1014.1 |
| 20260506151544 | 55 | 0 | 0.0 | 2.0 | 0.00 | 0.00 | 0.00 | 46 | 1014.0 |
| 20260506151038 | 54 | 0 | 0.0 | 3.0 | 0.00 | 0.00 | 0.00 | 46 | 1014.1 |
| 20260506150531 | 54 | 0 | 0.0 | 5.0 | 0.00 | 0.00 | 0.00 | 47 | 1014.1 |
| 20260506150052 | 54 | 0 | 0.0 | 5.0 | 0.00 | 0.00 | 0.00 | 46 | 1014.2 |
| 20260506145531 | 54 | 84 | 2.0 | 5.0 | 0.00 | 0.00 | 0.00 | 45 | 1014.3 |
| 20260506145032 | 55 | 89 | 0.0 | 2.0 | 0.00 | 0.00 | 0.00 | 45 | 1014.3 |
| 20260506144536 | 55 | 12 | 0.0 | 3.0 | 0.00 | 0.00 | 0.00 | 47 | 1014.3 |
| 20260506144032 | 54 | 64 | 1.0 | 3.0 | 0.00 | 0.00 | 0.00 | 46 | 1014.3 |
| 20260506143532 | 54 | 319 | 1.0 | 4.0 | 0.00 | 0.00 | 0.00 | 46 | 1014.2 |
| 20260506143044 | 54 | 0 | 1.0 | 4.0 | 0.00 | 0.00 | 0.00 | 47 | 1014.4 |
| 20260506142532 | 53 | 65 | 1.0 | 4.0 | 0.00 | 0.00 | 0.00 | 46 | 1014.4 |
| 20260506142032 | 54 | 71 | 0.0 | 8.0 | 0.00 | 0.00 | 0.00 | 46 | 1014.4 |
| 20260506141545 | 54 | 139 | 4.0 | 8.0 | 0.00 | 0.00 | 0.00 | 45 | 1014.5 |
| 20260506141031 | 54 | 0 | 0.0 | 2.0 | 0.00 | 0.00 | 0.00 | 45 | 1014.5 |
| 20260506140533 | 54 | 82 | 1.0 | 2.0 | 0.00 | 0.00 | 0.00 | 44 | 1014.6 |
| 20260506140042 | 54 | 24 | 0.0 | 2.0 | 0.00 | 0.00 | 0.00 | 44 | 1014.7 |
| 20260506135531 | 54 | 248 | 0.0 | 5.0 | 0.00 | 0.00 | 0.00 | 45 | 1014.6 |
| 20260506135031 | 54 | 81 | 2.0 | 5.0 | 0.00 | 0.00 | 0.00 | 44 | 1014.7 |
| 20260506134543 | 54 | 0 | 0.0 | 3.0 | 0.00 | 0.00 | 0.00 | 46 | 1014.9 |
| 20260506134033 | 54 | 109 | 1.0 | 3.0 | 0.00 | 0.00 | 0.00 | 44 | 1014.9 |
| 20260506133531 | 54 | 152 | 0.0 | 4.0 | 0.00 | 0.00 | 0.00 | 45 | 1014.8 |
| 20260506133048 | 54 | 46 | 1.0 | 7.0 | 0.00 | 0.00 | 0.00 | 45 | 1014.8 |
| 20260506132533 | 54 | 65 | 4.0 | 7.0 | 0.00 | 0.00 | 0.00 | 45 | 1014.9 |
| 20260506132032 | 54 | 349 | 1.0 | 6.0 | 0.00 | 0.00 | 0.00 | 45 | 1014.9 |
| 20260506131552 | 54 | 87 | 3.0 | 6.0 | 0.00 | 0.00 | 0.00 | 44 | 1014.9 |
| 20260506131032 | 54 | 326 | 1.0 | 5.0 | 0.00 | 0.00 | 0.00 | 45 | 1014.9 |
| 20260506130532 | 54 | 278 | 2.0 | 7.0 | 0.00 | 0.00 | 0.00 | 46 | 1015.1 |
| 20260506130043 | 54 | 88 | 2.0 | 7.0 | 0.00 | 0.00 | 0.00 | 47 | 1015.1 |
| 20260506125532 | 54 | 82 | 5.0 | 8.0 | 0.00 | 0.00 | 0.00 | 45 | 1015.2 |
| 20260506125034 | 54 | 95 | 4.0 | 8.0 | 0.00 | 0.00 | 0.00 | 44 | 1015.1 |
| 20260506124535 | 54 | 61 | 1.0 | 8.0 | 0.00 | 0.00 | 0.00 | 45 | 1015.1 |
| 20260506124035 | 54 | 162 | 4.0 | 8.0 | 0.00 | 0.00 | 0.00 | 45 | 1015.2 |
| 20260506123531 | 54 | 281 | 0.0 | 5.0 | 0.00 | 0.00 | 0.00 | 46 | 1015.2 |
| 20260506123042 | 53 | 138 | 2.0 | 10.0 | 0.00 | 0.00 | 0.00 | 45 | 1015.2 |
| 20260506122531 | 53 | 95 | 2.0 | 10.0 | 0.00 | 0.00 | 0.00 | 44 | 1015.3 |
| 20260506122031 | 54 | 86 | 1.0 | 6.0 | 0.00 | 0.00 | 0.00 | 44 | 1015.5 |
| 20260506121539 | 53 | 53 | 1.0 | 9.0 | 0.00 | 0.00 | 0.00 | 46 | 1015.3 |
| 20260506121033 | 52 | 152 | 3.0 | 9.0 | 0.00 | 0.00 | 0.00 | 44 | 1015.5 |
| 20260506120534 | 52 | 79 | 2.0 | 7.0 | 0.00 | 0.00 | 0.00 | 45 | 1015.4 |
| 20260506120040 | 52 | 75 | 2.0 | 7.0 | 0.00 | 0.00 | 0.00 | 46 | 1015.4 |
| 20260506115534 | 51 | 30 | 3.0 | 8.0 | 0.00 | 0.00 | 0.00 | 47 | 1015.5 |
| 20260506115031 | 52 | 65 | 4.0 | 8.0 | 0.00 | 0.00 | 0.00 | 45 | 1015.4 |
| 20260506114536 | 51 | 100 | 1.0 | 7.0 | 0.00 | 0.00 | 0.00 | 46 | 1015.4 |
| 20260506114031 | 51 | 267 | 2.0 | 7.0 | 0.00 | 0.00 | 0.00 | 46 | 1015.5 |
| 20260506113531 | 51 | 68 | 3.0 | 8.0 | 0.00 | 0.00 | 0.00 | 45 | 1015.6 |
| 20260506113041 | 51 | 122 | 4.0 | 8.0 | 0.00 | 0.00 | 0.00 | 45 | 1015.7 |
| 20260506112531 | 51 | 106 | 4.0 | 9.0 | 0.00 | 0.00 | 0.00 | 44 | 1015.8 |
| 20260506112035 | 51 | 106 | 3.0 | 9.0 | 0.00 | 0.00 | 0.00 | 44 | 1015.8 |
| 20260506111535 | 51 | 128 | 2.0 | 9.0 | 0.00 | 0.00 | 0.00 | 45 | 1015.8 |
| 20260506111031 | 50 | 336 | 2.0 | 9.0 | 0.00 | 0.00 | 0.00 | 47 | 1015.8 |
| 20260506110531 | 50 | 82 | 5.0 | 9.0 | 0.00 | 0.00 | 0.00 | 46 | 1015.9 |
| 20260506110038 | 50 | 105 | 4.0 | 8.0 | 0.00 | 0.00 | 0.00 | 45 | 1016.0 |
| 20260506105531 | 50 | 71 | 3.0 | 7.0 | 0.00 | 0.00 | 0.00 | 45 | 1016.0 |
| 20260506105035 | 51 | 103 | 3.0 | 7.0 | 0.00 | 0.00 | 0.00 | 45 | 1015.9 |
| 20260506104536 | 50 | 34 | 2.0 | 9.0 | 0.00 | 0.00 | 0.00 | 46 | 1016.0 |
| 20260506104030 | 50 | 56 | 2.0 | 9.0 | 0.00 | 0.00 | 0.00 | 47 | 1016.0 |
| 20260506103531 | 50 | 65 | 3.0 | 8.0 | 0.00 | 0.00 | 0.00 | 46 | 1016.1 |
| 20260506103039 | 50 | 98 | 3.0 | 8.0 | 0.00 | 0.00 | 0.00 | 47 | 1016.0 |
| 20260506102532 | 50 | 82 | 4.0 | 8.0 | 0.00 | 0.00 | 0.00 | 47 | 1016.0 |
| 20260506102031 | 51 | 63 | 1.0 | 3.0 | 0.00 | 0.00 | 0.00 | 48 | 1016.1 |
| 20260506101543 | 51 | 148 | 1.0 | 7.0 | 0.00 | 0.00 | 0.00 | 50 | 1016.2 |
| 20260506101031 | 50 | 316 | 2.0 | 7.0 | 0.00 | 0.00 | 0.00 | 53 | 1016.3 |
| 20260506100531 | 49 | 82 | 3.0 | 9.0 | 0.00 | 0.00 | 0.00 | 53 | 1016.3 |
| 20260506100042 | 49 | 59 | 2.0 | 9.0 | 0.00 | 0.00 | 0.00 | 53 | 1016.4 |
| 20260506095531 | 49 | 107 | 3.0 | 9.0 | 0.00 | 0.00 | 0.00 | 53 | 1016.5 |
| 20260506095030 | 48 | 75 | 3.0 | 9.0 | 0.00 | 0.00 | 0.00 | 54 | 1016.5 |
| 20260506094541 | 49 | 70 | 4.0 | 7.0 | 0.00 | 0.00 | 0.00 | 55 | 1016.5 |
| 20260506094030 | 48 | 114 | 2.0 | 9.0 | 0.00 | 0.00 | 0.00 | 55 | 1016.4 |
| 20260506093533 | 48 | 109 | 2.0 | 9.0 | 0.00 | 0.00 | 0.00 | 55 | 1016.5 |
| 20260506093035 | 48 | 67 | 4.0 | 9.0 | 0.00 | 0.00 | 0.00 | 54 | 1016.6 |
| 20260506092535 | 48 | 58 | 5.0 | 9.0 | 0.00 | 0.00 | 0.00 | 54 | 1016.6 |
| 20260506092031 | 48 | 87 | 3.0 | 8.0 | 0.00 | 0.00 | 0.00 | 55 | 1016.8 |
| 20260506091551 | 47 | 82 | 3.0 | 6.0 | 0.00 | 0.00 | 0.00 | 56 | 1016.7 |
| 20260506091032 | 47 | 75 | 3.0 | 8.0 | 0.00 | 0.00 | 0.00 | 56 | 1016.7 |
| 20260506090531 | 47 | 133 | 3.0 | 8.0 | 0.00 | 0.00 | 0.00 | 57 | 1016.6 |
| 20260506090045 | 46 | 79 | 4.0 | 7.0 | 0.00 | 0.00 | 0.00 | 57 | 1016.7 |
| 20260506085531 | 46 | 110 | 3.0 | 8.0 | 0.00 | 0.00 | 0.00 | 56 | 1016.8 |
| 20260506085030 | 46 | 44 | 3.0 | 8.0 | 0.00 | 0.00 | 0.00 | 56 | 1016.9 |
| 20260506084547 | 46 | 79 | 3.0 | 7.0 | 0.00 | 0.00 | 0.00 | 57 | 1017.0 |
| 20260506084031 | 46 | 105 | 4.0 | 9.0 | 0.00 | 0.00 | 0.00 | 56 | 1017.0 |
| 20260506083533 | 46 | 109 | 2.0 | 9.0 | 0.00 | 0.00 | 0.00 | 57 | 1017.0 |
| 20260506083038 | 46 | 78 | 4.0 | 9.0 | 0.00 | 0.00 | 0.00 | 58 | 1016.9 |
| 20260506082530 | 46 | 82 | 4.0 | 8.0 | 0.00 | 0.00 | 0.00 | 59 | 1016.8 |
| 20260506082031 | 46 | 107 | 3.0 | 9.0 | 0.00 | 0.00 | 0.00 | 60 | 1016.9 |
| 20260506081545 | 45 | 82 | 5.0 | 9.0 | 0.00 | 0.00 | 0.00 | 60 | 1017.0 |
| 20260506081032 | 45 | 61 | 5.0 | 9.0 | 0.00 | 0.00 | 0.00 | 60 | 1016.9 |
| 20260506080531 | 45 | 46 | 3.0 | 9.0 | 0.00 | 0.00 | 0.00 | 62 | 1016.7 |
| 20260506073042 | 44 | 88 | 4.0 | 8.0 | 0.00 | 0.00 | 0.00 | 64 | 1016.7 |
| 20260506072534 | 44 | 75 | 3.0 | 8.0 | 0.00 | 0.00 | 0.00 | 64 | 1016.7 |
| 20260506072031 | 44 | 82 | 3.0 | 8.0 | 0.00 | 0.00 | 0.00 | 65 | 1016.7 |
| 20260506071538 | 44 | 65 | 4.0 | 8.0 | 0.00 | 0.00 | 0.00 | 65 | 1016.7 |
| 20260506071033 | 44 | 114 | 4.0 | 8.0 | 0.00 | 0.00 | 0.00 | 66 | 1016.7 |
| 20260506070531 | 44 | 127 | 3.0 | 6.0 | 0.00 | 0.00 | 0.00 | 67 | 1016.9 |
| 20260506062031 | 43 | 68 | 1.0 | 5.0 | 0.00 | 0.00 | 0.00 | 69 | 1016.7 |
| 20260506061545 | 43 | 113 | 1.0 | 5.0 | 0.00 | 0.00 | 0.00 | 70 | 1016.7 |
| 20260506061031 | 43 | 79 | 1.0 | 4.0 | 0.00 | 0.00 | 0.00 | 70 | 1016.8 |
| 20260506060532 | 43 | 80 | 1.0 | 4.0 | 0.00 | 0.00 | 0.00 | 70 | 1016.8 |
| 20260506051031 | 42 | 75 | 1.0 | 3.0 | 0.00 | 0.00 | 0.00 | 69 | 1016.8 |
| 20260506050531 | 42 | 105 | 1.0 | 4.0 | 0.00 | 0.00 | 0.00 | 69 | 1016.9 |
| 20260506045030 | 42 | 76 | 1.0 | 3.0 | 0.00 | 0.00 | 0.00 | 69 | 1016.8 |
| 20260506044543 | 42 | 76 | 1.0 | 3.0 | 0.00 | 0.00 | 0.00 | 69 | 1016.8 |
| 20260506044030 | 42 | 58 | 1.0 | 3.0 | 0.00 | 0.00 | 0.00 | 69 | 1017.0 |
| 20260506043534 | 42 | 72 | 1.0 | 2.0 | 0.00 | 0.00 | 0.00 | 69 | 1016.8 |
| 20260506043043 | 42 | 76 | 0.0 | 2.0 | 0.00 | 0.00 | 0.00 | 69 | 1016.8 |
| 20260506042530 | 42 | 83 | 0.0 | 2.0 | 0.00 | 0.00 | 0.00 | 68 | 1017.0 |
| 20260506042030 | 42 | 85 | 1.0 | 3.0 | 0.00 | 0.00 | 0.00 | 68 | 1017.0 |
| 20260506041537 | 43 | 89 | 1.0 | 3.0 | 0.00 | 0.00 | 0.00 | 68 | 1017.0 |
| 20260506041030 | 43 | 65 | 1.0 | 4.0 | 0.00 | 0.00 | 0.00 | 68 | 1016.8 |
| 20260506040535 | 43 | 84 | 1.0 | 4.0 | 0.00 | 0.00 | 0.00 | 67 | 1016.8 |
| 20260506040045 | 43 | 55 | 2.0 | 4.0 | 0.00 | 0.00 | 0.00 | 67 | 1017.0 |
| 20260506035530 | 43 | 74 | 0.0 | 4.0 | 0.00 | 0.00 | 0.00 | 67 | 1016.8 |
| 20260506035030 | 43 | 72 | 2.0 | 5.0 | 0.00 | 0.00 | 0.00 | 67 | 1016.9 |
| 20260506034558 | 43 | 82 | 2.0 | 5.0 | 0.00 | 0.00 | 0.00 | 67 | 1017.0 |
| 20260506034030 | 43 | 89 | 2.0 | 5.0 | 0.00 | 0.00 | 0.00 | 67 | 1016.9 |
| 20260506033531 | 43 | 71 | 2.0 | 5.0 | 0.00 | 0.00 | 0.00 | 66 | 1016.9 |
| 20260506033055 | 43 | 108 | 2.0 | 4.0 | 0.00 | 0.00 | 0.00 | 66 | 1016.9 |
| 20260506032531 | 43 | 122 | 1.0 | 4.0 | 0.00 | 0.00 | 0.00 | 66 | 1017.0 |
| 20260506032031 | 43 | 82 | 2.0 | 4.0 | 0.00 | 0.00 | 0.00 | 66 | 1017.0 |
| 20260506031533 | 43 | 70 | 1.0 | 4.0 | 0.00 | 0.00 | 0.00 | 66 | 1016.9 |
| 20260506031031 | 43 | 98 | 2.0 | 4.0 | 0.00 | 0.00 | 0.00 | 66 | 1016.9 |
| 20260506030530 | 43 | 92 | 2.0 | 4.0 | 0.00 | 0.00 | 0.00 | 66 | 1017.0 |
| 20260506030044 | 43 | 54 | 1.0 | 4.0 | 0.00 | 0.00 | 0.00 | 66 | 1017.0 |
| 20260506025530 | 43 | 71 | 2.0 | 4.0 | 0.00 | 0.00 | 0.00 | 66 | 1017.1 |
| 20260506025030 | 43 | 94 | 2.0 | 4.0 | 0.00 | 0.00 | 0.00 | 66 | 1017.1 |
| 20260506024555 | 43 | 58 | 1.0 | 4.0 | 0.00 | 0.00 | 0.00 | 66 | 1017.1 |
| 20260506024031 | 43 | 60 | 2.0 | 4.0 | 0.00 | 0.00 | 0.00 | 66 | 1017.0 |
| 20260506023531 | 44 | 56 | 1.0 | 3.0 | 0.00 | 0.00 | 0.00 | 66 | 1017.0 |
| 20260506023040 | 44 | 77 | 1.0 | 4.0 | 0.00 | 0.00 | 0.00 | 66 | 1017.1 |
| 20260506022530 | 44 | 76 | 1.0 | 4.0 | 0.00 | 0.00 | 0.00 | 66 | 1017.1 |
| 20260506022031 | 44 | 77 | 2.0 | 5.0 | 0.00 | 0.00 | 0.00 | 65 | 1017.1 |
| 20260506021538 | 44 | 89 | 1.0 | 7.0 | 0.00 | 0.00 | 0.00 | 65 | 1017.0 |
| 20260506021031 | 44 | 71 | 2.0 | 7.0 | 0.00 | 0.00 | 0.00 | 65 | 1017.1 |
| 20260506020530 | 44 | 94 | 3.0 | 7.0 | 0.00 | 0.00 | 0.00 | 65 | 1017.0 |
| 20260506020035 | 44 | 86 | 2.0 | 5.0 | 0.00 | 0.00 | 0.00 | 65 | 1017.1 |
| 20260506015531 | 44 | 63 | 2.0 | 6.0 | 0.00 | 0.00 | 0.00 | 64 | 1017.1 |
| 20260506015031 | 44 | 77 | 2.0 | 7.0 | 0.00 | 0.00 | 0.00 | 65 | 1017.0 |
| 20260506014536 | 44 | 66 | 3.0 | 7.0 | 0.00 | 0.00 | 0.00 | 64 | 1017.0 |
| 20260506014030 | 44 | 102 | 3.0 | 4.0 | 0.00 | 0.00 | 0.00 | 64 | 1017.2 |
| 20260506013530 | 44 | 59 | 1.0 | 5.0 | 0.00 | 0.00 | 0.00 | 64 | 1017.3 |
| 20260506013059 | 44 | 96 | 2.0 | 5.0 | 0.00 | 0.00 | 0.00 | 64 | 1017.2 |
| 20260506012531 | 44 | 86 | 2.0 | 5.0 | 0.00 | 0.00 | 0.00 | 64 | 1017.3 |
| 20260506012031 | 44 | 77 | 1.0 | 5.0 | 0.00 | 0.00 | 0.00 | 64 | 1017.4 |
| 20260506011542 | 44 | 85 | 2.0 | 6.0 | 0.00 | 0.00 | 0.00 | 63 | 1017.4 |
| 20260506011030 | 44 | 72 | 2.0 | 6.0 | 0.00 | 0.00 | 0.00 | 63 | 1017.5 |
| 20260506010531 | 44 | 72 | 2.0 | 5.0 | 0.00 | 0.00 | 0.00 | 63 | 1017.5 |
| 20260506010037 | 44 | 82 | 2.0 | 5.0 | 0.00 | 0.00 | 0.00 | 63 | 1017.5 |
| 20260506005530 | 44 | 80 | 3.0 | 6.0 | 0.00 | 0.00 | 0.00 | 63 | 1017.5 |
| 20260506005030 | 44 | 68 | 3.0 | 6.0 | 0.00 | 0.00 | 0.00 | 63 | 1017.6 |
| 20260506004536 | 44 | 160 | 2.0 | 6.0 | 0.00 | 0.00 | 0.00 | 63 | 1017.6 |
| 20260506004030 | 45 | 72 | 3.0 | 7.0 | 0.00 | 0.00 | 0.00 | 63 | 1017.6 |
| 20260506003530 | 45 | 78 | 3.0 | 7.0 | 0.00 | 0.00 | 0.00 | 62 | 1017.6 |
| 20260506003042 | 45 | 68 | 4.0 | 8.0 | 0.00 | 0.00 | 0.00 | 62 | 1017.7 |
| 20260506002530 | 45 | 78 | 3.0 | 9.0 | 0.00 | 0.00 | 0.00 | 62 | 1017.7 |
| 20260506002030 | 45 | 95 | 4.0 | 9.0 | 0.00 | 0.00 | 0.00 | 63 | 1017.7 |
| 20260506001545 | 45 | 74 | 6.0 | 9.0 | 0.00 | 0.00 | 0.00 | 62 | 1017.5 |
| 20260506001030 | 45 | 71 | 3.0 | 6.0 | 0.00 | 0.00 | 0.00 | 63 | 1017.6 |
| 20260506000530 | 45 | 59 | 3.0 | 6.0 | 0.00 | 0.00 | 0.00 | 63 | 1017.6 |
| 20260506000037 | 45 | 72 | 2.0 | 7.0 | 0.00 | 0.00 | 0.00 | 63 | 1017.6 |
| 20260505235531 | 45 | 81 | 4.0 | 7.0 | 0.00 | 0.00 | 0.00 | 63 | 1017.5 |
| 20260505235031 | 45 | 70 | 3.0 | 6.0 | 0.00 | 0.00 | 0.00 | 63 | 1017.5 |
| 20260505234537 | 45 | 75 | 3.0 | 7.0 | 0.00 | 0.00 | 0.00 | 63 | 1017.5 |
| 20260505234030 | 45 | 49 | 2.0 | 7.0 | 0.00 | 0.00 | 0.00 | 63 | 1017.5 |
| 20260505233531 | 45 | 69 | 3.0 | 6.0 | 0.00 | 0.00 | 0.00 | 63 | 1017.6 |
| 20260505233043 | 45 | 84 | 2.0 | 6.0 | 0.00 | 0.00 | 0.00 | 63 | 1017.5 |
| 20260505232530 | 45 | 59 | 3.0 | 8.0 | 0.00 | 0.00 | 0.00 | 63 | 1017.6 |
| 20260505232030 | 45 | 108 | 2.0 | 8.0 | 0.00 | 0.00 | 0.00 | 64 | 1017.7 |
| 20260505231543 | 45 | 83 | 4.0 | 8.0 | 0.00 | 0.00 | 0.00 | 63 | 1017.7 |
| 20260505231033 | 45 | 56 | 3.0 | 10.0 | 0.00 | 0.00 | 0.00 | 63 | 1017.7 |
| 20260505230530 | 45 | 68 | 4.0 | 10.0 | 0.00 | 0.00 | 0.00 | 63 | 1017.7 |
| 20260505230051 | 45 | 68 | 5.0 | 10.0 | 0.00 | 0.00 | 0.00 | 63 | 1017.8 |
| 20260505225530 | 45 | 117 | 4.0 | 9.0 | 0.00 | 0.00 | 0.00 | 63 | 1017.9 |
| 20260505225030 | 45 | 63 | 4.0 | 8.0 | 0.00 | 0.00 | 0.00 | 63 | 1017.9 |
| 20260505224536 | 45 | 70 | 3.0 | 8.0 | 0.00 | 0.00 | 0.00 | 63 | 1017.8 |
| 20260505224030 | 45 | 78 | 3.0 | 9.0 | 0.00 | 0.00 | 0.00 | 63 | 1017.9 |
| 20260505223530 | 45 | 69 | 4.0 | 9.0 | 0.00 | 0.00 | 0.00 | 64 | 1017.8 |
| 20260505223054 | 45 | 96 | 2.0 | 5.0 | 0.00 | 0.00 | 0.00 | 64 | 1017.9 |
| 20260505222534 | 46 | 65 | 2.0 | 5.0 | 0.00 | 0.00 | 0.00 | 64 | 1018.0 |
| 20260505222032 | 46 | 75 | 2.0 | 9.0 | 0.00 | 0.00 | 0.00 | 63 | 1017.9 |
| 20260505221543 | 46 | 58 | 2.0 | 9.0 | 0.00 | 0.00 | 0.00 | 63 | 1017.9 |
| 20260505221031 | 46 | 108 | 3.0 | 8.0 | 0.00 | 0.00 | 0.00 | 63 | 1017.7 |
| 20260505220530 | 46 | 60 | 3.0 | 7.0 | 0.00 | 0.00 | 0.00 | 63 | 1017.8 |
| 20260505220044 | 46 | 74 | 4.0 | 9.0 | 0.00 | 0.00 | 0.00 | 63 | 1017.9 |
| 20260505215530 | 46 | 63 | 4.0 | 9.0 | 0.00 | 0.00 | 0.00 | 63 | 1018.0 |
| 20260505215030 | 46 | 94 | 4.0 | 9.0 | 0.00 | 0.00 | 0.00 | 63 | 1018.1 |
| 20260505214540 | 46 | 65 | 3.0 | 7.0 | 0.00 | 0.00 | 0.00 | 62 | 1017.8 |
| 20260505214030 | 46 | 65 | 3.0 | 7.0 | 0.00 | 0.00 | 0.00 | 63 | 1017.9 |
| 20260505213530 | 46 | 92 | 3.0 | 8.0 | 0.00 | 0.00 | 0.00 | 63 | 1017.7 |
| 20260505213050 | 46 | 106 | 3.0 | 8.0 | 0.00 | 0.00 | 0.00 | 62 | 1017.8 |
| 20260505212533 | 46 | 78 | 3.0 | 8.0 | 0.00 | 0.00 | 0.00 | 62 | 1017.7 |
| 20260505212033 | 46 | 80 | 3.0 | 13.0 | 0.00 | 0.00 | 0.00 | 62 | 1017.7 |
| 20260505211535 | 46 | 75 | 4.0 | 13.0 | 0.00 | 0.00 | 0.00 | 62 | 1017.6 |
| 20260505211031 | 46 | 76 | 4.0 | 9.0 | 0.00 | 0.00 | 0.00 | 62 | 1017.6 |
| 20260505210536 | 46 | 60 | 3.0 | 11.0 | 0.00 | 0.00 | 0.00 | 61 | 1017.6 |